KTXEAGLE7 Weather Reports


Display with metric or nautical units.
time (UTC)temp
F
wind
direction
speed
MPH
gust
MPH
rain 1hr
in
rain 24hr
in
rain mn
in
humidity
%
barometer
mb
20260903021514 84 168 9.0 17.0 0.00 0.00 0.00 83 1012.9
20260903020013 84 171 8.0 14.0 0.00 0.00 0.00 82 1012.7
20260903014517 85 161 7.0 12.0 0.00 0.00 0.00 79 1012.6
20260903013010 86 165 9.0 17.0 0.00 0.00 0.00 77 1012.5
20260903011514 87 171 6.0 15.0 0.00 0.00 0.00 73 1012.5
20260903010009 87 163 8.0 13.0 0.00 0.00 0.00 68 1012.2
20260903004509 88 177 9.0 17.0 0.00 0.00 0.00 64 1012.1
20260903003011 88 172 9.0 20.0 0.00 0.00 0.00 63 1011.9
20260903001509 89 171 10.0 19.0 0.00 0.00 0.00 64 1011.7
20260903000110 90 176 13.0 21.0 0.00 0.00 0.00 65 1011.5
20260902234505 91 173 11.0 16.0 0.00 0.00 0.00 66 1011.6
20260902233005 91 171 14.0 20.0 0.00 0.00 0.00 67 1011.5
20260902231504 91 180 14.0 21.0 0.00 0.00 0.00 67 1011.5
20260902230002 92 188 11.0 20.0 0.00 0.00 0.00 67 1011.4
20260902224503 94 142 12.0 21.0 0.00 0.00 0.00 62 1011.2
20260902223004 95 161 5.0 10.0 0.00 0.00 0.00 56 1011.4
20260902221605 96 173 7.0 12.0 0.00 0.00 0.00 56 1011.2
20260902220059 95 176 6.0 10.0 0.00 0.00 0.00 57 1011.2
20260902214601 95 153 4.0 8.0 0.00 0.00 0.00 53 1011.4
20260902213102 95 189 5.0 10.0 0.00 0.00 0.00 55 1011.6
20260902211557 96 160 6.0 10.0 0.00 0.00 0.00 50 1011.6
20260902210052 96 196 5.0 10.0 0.00 0.00 0.00 54 1011.7
20260902204550 96 145 7.0 12.0 0.00 0.00 0.00 54 1011.9
20260902203048 96 166 6.0 15.0 0.00 0.00 0.00 54 1012.0
20260902201601 96 217 6.0 13.0 0.00 0.00 0.00 52 1012.3
20260902200057 96 175 8.0 15.0 0.00 0.00 0.00 53 1012.6
20260902194539 96 194 9.0 13.0 0.00 0.00 0.00 53 1013.0
20260902193035 95 180 8.0 14.0 0.00 0.00 0.00 58 1013.3
20260902191536 94 206 6.0 10.0 0.00 0.00 0.00 60 1013.5
20260902190046 94 159 6.0 12.0 0.00 0.00 0.00 56 1013.6
20260902184531 93 240 8.0 11.0 0.00 0.00 0.00 57 1014.0
20260902183026 93 182 7.0 13.0 0.00 0.00 0.00 60 1014.2
20260902181525 92 216 8.0 15.0 0.00 0.00 0.00 63 1014.4
20260902180020 91 215 7.0 14.0 0.00 0.00 0.00 65 1014.7
20260902174518 91 229 9.0 14.0 0.00 0.00 0.00 65 1015.1
20260902173015 90 224 8.0 17.0 0.00 0.00 0.00 70 1015.3
20260902171514 89 221 9.0 16.0 0.00 0.00 0.00 73 1015.6
20260902170011 89 261 7.0 16.0 0.00 0.00 0.00 72 1015.8
20260902164515 89 201 12.0 17.0 0.00 0.00 0.00 74 1016.1
20260902163010 88 196 11.0 17.0 0.00 0.00 0.00 76 1016.1
20260902161508 86 218 11.0 19.0 0.00 0.00 0.00 79 1016.0
20260902160002 86 239 10.0 16.0 0.00 0.00 0.00 81 1016.2
20260902154605 85 223 11.0 15.0 0.00 0.00 0.00 83 1016.1
20260902153059 85 205 9.0 17.0 0.00 0.00 0.00 84 1016.1
20260902151557 83 225 10.0 15.0 0.00 0.00 0.00 87 1016.0
20260902150052 83 223 11.0 15.0 0.00 0.00 0.00 88 1016.1
20260902144549 82 232 8.0 14.0 0.00 0.00 0.00 90 1016.0
20260902143047 81 240 8.0 12.0 0.00 0.00 0.00 92 1016.1
20260902141545 81 257 6.0 11.0 0.00 0.00 0.00 93 1016.0
20260902140047 80 263 4.0 9.0 0.00 0.00 0.00 95 1016.1
20260902134543 79 257 4.0 8.0 0.00 0.00 0.00 96 1016.1
20260902133045 79 235 4.0 10.0 0.00 0.00 0.00 97 1015.9
20260902131539 78 247 6.0 9.0 0.00 0.00 0.00 97 1015.7
20260902130040 78 219 4.0 10.0 0.00 0.00 0.00 98 1015.3
20260902124534 78 231 6.0 9.0 0.00 0.00 0.00 98 1014.9
20260902123035 78 237 6.0 10.0 0.00 0.00 0.00 98 1014.8
20260902121533 78 246 5.0 8.0 0.00 0.00 0.00 98 1014.7
20260902120029 78 234 5.0 7.0 0.00 0.00 0.00 98 1014.8
20260902114534 78 223 5.0 9.0 0.00 0.00 0.00 98 1014.9
20260902113027 78 238 6.0 10.0 0.00 0.00 0.00 98 1014.8
20260902111537 78 232 6.0 11.0 0.00 0.00 0.00 97 1014.6
20260902110036 78 211 6.0 9.0 0.00 0.00 0.00 97 1014.6
20260902104536 78 226 5.0 9.0 0.00 0.00 0.00 97 1014.5
20260902103022 78 227 4.0 7.0 0.00 0.00 0.00 97 1014.7
20260902101521 78 225 6.0 9.0 0.00 0.00 0.00 97 1014.6
20260902100030 78 236 4.0 7.0 0.00 0.00 0.00 97 1014.4
20260902094522 79 232 4.0 9.0 0.00 0.00 0.00 97 1014.5
20260902093017 79 225 3.0 5.0 0.00 0.00 0.00 97 1014.4
20260902091517 79 231 3.0 8.0 0.00 0.00 0.00 97 1014.2
20260902090014 78 222 4.0 6.0 0.00 0.00 0.00 97 1014.3
20260902084513 78 238 3.0 5.0 0.00 0.00 0.00 97 1014.5
20260902083012 78 229 3.0 9.0 0.00 0.00 0.00 96 1014.4
20260902081516 78 229 5.0 9.0 0.00 0.00 0.00 96 1014.4
20260902080010 78 231 5.0 7.0 0.00 0.00 0.00 96 1014.5
20260902074508 78 254 4.0 7.0 0.00 0.00 0.00 95 1014.6
20260902073007 78 257 2.0 5.0 0.00 0.00 0.00 95 1014.7
20260902071511 78 228 3.0 5.0 0.00 0.00 0.00 95 1014.8
20260902070008 78 256 2.0 3.0 0.00 0.00 0.00 95 1014.8
20260902064503 78 226 2.0 4.0 0.00 0.00 0.00 94 1014.7
20260902063007 78 229 3.0 5.0 0.00 0.00 0.00 94 1014.8
20260902061503 78 227 3.0 5.0 0.00 0.00 0.00 94 1014.8
20260902060006 79 228 2.0 3.0 0.00 0.00 0.00 93 1014.9
20260902054605 79 198 0.0 4.0 0.00 0.00 0.00 94 1014.8
20260902053059 79 190 0.0 0.0 0.00 0.00 0.00 94 1014.8
20260902051558 80 190 0.0 0.0 0.00 0.00 0.00 93 1014.6
20260902044552 81 155 0.0 0.0 0.00 0.00 0.00 91 1014.7
20260902043053 81 155 0.0 0.0 0.00 0.00 0.00 90 1014.8
20260902041604 81 155 0.0 0.0 0.00 0.00 0.00 90 1014.8
20260902040050 81 59 0.0 0.0 0.00 0.00 0.00 90 1014.9
20260902034554 81 59 0.0 0.0 0.00 0.00 0.00 90 1014.8
20260902033104 81 59 0.0 0.0 0.00 0.00 0.00 89 1014.6
20260902031549 82 59 0.0 0.0 0.00 0.00 0.00 88 1014.6
20260902030048 82 59 0.0 0.0 0.00 0.00 0.00 89 1014.5
20260902024549 82 183 0.0 0.0 0.00 0.00 0.00 89 1014.3
20260902023048 82 183 0.0 2.0 0.00 0.00 0.00 89 1014.0
20260902021607 82 183 0.0 3.0 0.00 0.00 0.00 89 1013.9